Temp
63 63 63 63 63 63 62 62 62 62 63 64 63 62 62 62 62 62 62 62 62 63 63 63 63 63 58 51 54 64 71 68 63 61 55 52 48 44 39 40 43 40 43 47 49 48 48
62 63 63 63 62 63 62 62 62 62 62 63 62 62 61 61 61 61 61 61 62 62 62 62 63 62 53 45 62 64 62 61 60 57 53 52 48 49 43 41 40 44 45 46 47 47 47
62 62 62 62 62 62 62 62 62 62 62 62 62 61 61 61 61 61 61 61 61 61 61 62 63 59 51 53 61 61 61 58 59 57 53 54 53 48 45 41 46 45 39 42 44 46 46
62 61 61 62 62 62 62 62 61 61 61 61 61 61 60 60 60 60 60 61 61 61 61 62 63 54 49 61 59 60 60 58 59 59 56 56 55 49 45 47 44 38 36 32 45 46 47
62 62 62 61 62 62 62 61 61 61 61 61 61 60 60 60 60 60 59 60 61 61 61 62 53 50 49 64 56 60 60 56 56 56 56 61 53 44 44 37 33 34 29 32 36 45 45
62 63 62 62 62 62 62 61 61 61 61 60 60 60 59 59 59 59 59 61 61 60 59 60 58 47 54 52 56 58 57 57 53 52 51 48 43 38 36 34 28 32 30 32 32 41 41
62 62 62 61 61 62 62 61 61 61 61 60 60 59 59 59 59 59 56 52 50 49 50 51 49 50 53 59 58 55 58 54 52 48 40 43 37 33 39 38 39 36 31 31 39 44 38
62 62 61 61 61 62 61 61 61 61 61 60 59 59 59 59 59 60 53 49 47 49 43 51 51 52 55 55 50 53 57 47 45 39 41 38 34 41 44 42 39 36 33 31 38 42 39
61 62 62 61 61 61 61 61 61 61 60 60 59 59 59 58 59 56 51 48 53 51 41 49 53 51 52 54 49 49 54 48 42 38 38 35 41 45 42 41 38 35 33 33 35 39 38
61 60 60 60 60 59 59 59 59 60 59 59 58 58 58 57 56 51 49 54 53 52 35 44 48 52 53 51 46 55 54 48 43 39 39 38 43 42 41 40 38 33 39 39 37 32 26
60 59 58 58 58 58 58 58 58 58 58 57 56 58 58 57 51 51 53 53 52 50 24 47 48 57 52 47 48 48 53 48 40 41 40 40 39 39 38 41 41 39 42 38 35 31 27
58 58 58 57 57 57 57 58 57 57 56 56 56 57 57 54 50 52 53 52 52 36 27 43 47 45 45 45 46 48 47 49 47 40 39 39 42 41 41 44 42 45 39 35 32 30 23
57 57 57 57 56 56 56 56 56 56 56 56 56 56 54 54 50 53 52 50 35 30 47 42 43 44 42 42 43 43 42 39 38 32 33 37 38 42 43 39 40 39 33 23 25 23 24
57 56 56 56 56 56 55 55 55 55 56 55 55 55 54 54 51 52 49 44 30 41 43 47 44 43 41 43 42 42 38 36 37 35 29 26 31 38 42 38 35 35 32 23 21 19 23
56 56 55 55 55 56 55 55 56 55 55 55 54 47 47 50 52 50 46 29 34 41 47 44 43 37 39 42 40 38 37 37 39 39 34 28 34 41 41 41 40 35 30 34 29 24 19
56 56 55 55 55 55 55 55 55 54 55 55 48 43 44 50 50 46 39 36 41 47 48 44 39 43 37 40 39 35 34 41 40 41 38 35 31 37 40 41 39 36 39 28 28 21 21
55 55 55 55 55 54 54 54 54 54 54 54 42 39 47 49 48 41 31 33 42 49 49 44 40 39 41 40 39 36 37 41 42 39 38 35 33 35 36 36 35 35 32 32 31 28 21
55 55 55 55 54 55 54 54 54 54 54 50 43 32 47 47 37 33 32 39 46 45 44 44 41 42 40 39 36 35 37 40 42 41 37 36 31 26 35 36 38 36 34 33 27 26 25
55 55 54 54 54 53 53 53 53 54 54 45 40 38 45 45 30 30 36 40 43 42 42 41 39 41 38 37 34 36 36 42 42 41 37 37 31 22 32 33 35 33 35 34 33 30 25
54 54 54 54 54 54 53 53 53 53 53 47 42 33 36 38 35 30 33 35 37 44 42 42 40 40 36 34 37 34 35 40 40 40 48 43 31 32 28 33 34 32 34 35 32 23 25
54 54 54 54 54 54 53 52 53 53 53 44 42 32 39 29 33 36 37 35 35 36 42 42 38 40 37 32 33 32 35 38 39 44 37 37 29 27 31 33 33 33 34 33 31 30 28
54 54 54 54 54 53 53 52 52 53 52 43 36 36 39 37 35 34 35 33 35 36 38 37 35 35 37 35 37 33 36 33 34 34 33 33 29 28 27 34 32 31 33 33 33 34 33
54 53 53 53 53 53 53 52 52 52 47 34 37 41 38 34 31 34 33 33 34 37 39 40 36 34 34 38 39 40 40 41 40 36 33 31 29 26 27 29 30 26 30 35 33 32 32
53 54 54 53 52 53 53 52 52 52 47 37 35 34 29 26 29 31 32 34 33 34 32 38 38 35 40 45 43 42 39 39 39 38 40 31 28 29 24 27 20 34 36 37 35 37 36
52 52 53 53 53 53 52 52 52 52 52 39 38 34 30 27 30 30 32 31 32 34 33 34 37 39 41 37 31 31 30 31 33 37 36 39 32 27 24 23 33 36 41 35 34 37 39
52 52 52 52 52 52 52 52 52 52 52 40 37 38 33 27 25 34 29 30 27 28 30 35 40 41 40 34 32 24 22 27 28 27 31 32 32 32 24 22 21 31 35 38 37 28 43
52 52 52 52 52 52 52 52 51 52 51 42 37 39 34 30 32 34 28 27 32 29 26 30 32 33 37 29 27 26 26 30 24 24 24 25 25 27 29 29 31 36 39 39 26 35 39
51 51 51 51 51 51 51 51 51 51 51 46 38 39 36 31 33 35 36 30 29 29 24 29 29 30 29 25 27 27 24 28 28 31 25 27 23 24 29 26 24 40 37 35 41 37 37
51 51 51 51 51 51 51 51 50 51 51 49 39 41 43 35 34 38 39 41 39 38 33 31 30 28 29 23 25 25 25 24 26 23 34 28 36 28 32 31 39 36 39 41 39 40 38
MSLP
1024.70 1024.58 1024.35 1024.15 1023.95 1023.68 1023.53 1023.33 1023.00 1022.61 1022.21 1021.74 1021.37 1021.05 1020.76 1020.49 1020.27 1019.95 1019.66 1019.40 1019.16 1018.96 1018.83 1018.68 1018.47 1018.14 1017.83 1017.55 1016.68 1016.06 1016.14 1016.29 1016.35 1016.48 1016.80 1017.06 1017.46 1017.95 1018.33 1018.43 1018.44 1018.30 1017.38 1016.56 1015.72 1015.22 1015.00
1025.01 1024.79 1024.61 1024.37 1024.24 1023.91 1023.63 1023.43 1023.15 1022.74 1022.28 1021.86 1021.44 1021.09 1020.77 1020.40 1020.05 1019.84 1019.54 1019.23 1018.93 1018.80 1018.70 1018.58 1018.34 1018.01 1017.91 1017.32 1016.03 1016.11 1016.31 1016.48 1016.55 1016.77 1017.09 1017.31 1017.65 1017.91 1018.29 1018.36 1018.41 1017.77 1017.45 1016.36 1015.19 1014.47 1014.36
1025.21 1025.08 1024.89 1024.62 1024.37 1024.17 1023.87 1023.56 1023.29 1022.87 1022.39 1021.99 1021.60 1021.18 1020.75 1020.36 1019.96 1019.56 1019.30 1019.05 1018.80 1018.57 1018.54 1018.50 1018.26 1018.20 1017.91 1016.82 1016.03 1016.19 1016.37 1016.47 1016.55 1016.75 1017.06 1017.20 1017.45 1017.84 1018.16 1018.18 1017.90 1017.71 1017.56 1016.12 1014.81 1014.28 1013.94
1025.46 1025.33 1025.14 1024.84 1024.57 1024.31 1023.97 1023.71 1023.42 1023.02 1022.61 1022.12 1021.73 1021.23 1020.77 1020.32 1019.86 1019.46 1019.09 1018.78 1018.55 1018.45 1018.36 1018.33 1018.23 1018.21 1017.36 1016.09 1016.13 1016.26 1016.39 1016.53 1016.55 1016.77 1016.93 1017.04 1017.33 1017.72 1018.06 1017.97 1017.76 1017.98 1017.98 1016.88 1014.62 1014.23 1013.54
1025.64 1025.49 1025.26 1025.03 1024.71 1024.40 1024.12 1023.80 1023.55 1023.15 1022.72 1022.26 1021.77 1021.27 1020.75 1020.26 1019.77 1019.28 1018.84 1018.45 1018.22 1018.20 1018.14 1018.19 1018.35 1018.24 1017.11 1016.08 1016.16 1016.08 1016.25 1016.56 1016.63 1016.85 1016.97 1017.17 1017.50 1017.96 1018.14 1018.40 1018.35 1018.39 1018.26 1017.28 1015.65 1014.22 1013.93
1025.76 1025.50 1025.36 1025.10 1024.88 1024.58 1024.28 1023.94 1023.60 1023.23 1022.83 1022.41 1021.87 1021.33 1020.71 1020.10 1019.53 1018.95 1018.54 1018.26 1018.12 1018.21 1018.29 1018.21 1018.32 1018.57 1016.91 1016.33 1015.99 1016.00 1016.22 1016.44 1016.65 1016.89 1017.20 1017.52 1018.06 1018.31 1018.59 1018.81 1018.95 1018.57 1018.25 1017.25 1016.49 1014.52 1014.08
1025.93 1025.71 1025.51 1025.22 1024.91 1024.64 1024.37 1024.05 1023.70 1023.25 1022.84 1022.46 1021.88 1021.28 1020.62 1019.96 1019.30 1018.68 1018.36 1018.51 1018.97 1018.78 1018.46 1017.88 1017.73 1017.44 1016.78 1016.30 1016.17 1016.10 1016.23 1016.54 1016.79 1017.09 1017.55 1017.90 1018.54 1018.52 1018.06 1018.06 1018.05 1018.20 1018.02 1017.32 1015.53 1014.62 1014.35
1025.93 1025.72 1025.63 1025.32 1024.97 1024.62 1024.34 1024.11 1023.76 1023.28 1022.87 1022.38 1021.82 1021.18 1020.49 1019.81 1019.20 1018.65 1018.68 1019.53 1020.06 1020.27 1019.09 1017.45 1017.40 1017.19 1016.69 1016.49 1016.44 1016.20 1016.28 1016.76 1017.00 1017.45 1017.70 1018.17 1018.07 1017.25 1017.31 1017.25 1017.47 1017.55 1017.36 1016.53 1015.06 1014.49 1014.58
1025.96 1025.76 1025.66 1025.37 1025.09 1024.83 1024.52 1024.17 1023.75 1023.36 1022.91 1022.44 1021.86 1021.21 1020.47 1019.68 1019.04 1019.15 1019.66 1020.03 1019.97 1020.12 1019.84 1017.44 1016.82 1016.52 1016.43 1016.63 1016.58 1016.41 1016.56 1016.74 1017.08 1017.52 1017.82 1018.09 1017.03 1016.85 1016.80 1016.56 1016.69 1016.58 1016.58 1016.12 1015.87 1014.74 1014.40
1026.11 1026.05 1025.98 1025.71 1025.45 1025.17 1024.87 1024.52 1024.02 1023.45 1022.97 1022.54 1021.93 1021.30 1020.61 1019.73 1019.56 1019.97 1020.10 1020.12 1020.02 1020.04 1019.90 1017.48 1016.66 1016.18 1016.26 1016.42 1016.65 1016.38 1016.48 1016.92 1017.14 1017.49 1017.55 1017.52 1016.68 1016.60 1016.29 1016.21 1016.28 1016.06 1015.46 1015.62 1015.65 1015.67 1015.67
1026.61 1026.60 1026.39 1026.12 1025.76 1025.42 1025.16 1024.73 1024.15 1023.67 1023.18 1022.73 1022.15 1021.44 1020.87 1020.32 1020.45 1020.23 1020.27 1020.06 1019.96 1020.09 1019.55 1017.41 1016.51 1016.15 1016.24 1016.66 1016.75 1016.60 1016.66 1016.78 1017.15 1017.43 1017.87 1016.88 1016.60 1016.43 1016.17 1015.67 1015.86 1015.53 1015.12 1015.48 1015.61 1015.78 1016.03
1026.94 1026.81 1026.67 1026.51 1026.12 1025.84 1025.31 1024.72 1024.31 1023.83 1023.36 1022.77 1022.21 1021.49 1020.99 1020.60 1020.92 1020.15 1020.06 1020.02 1020.06 1020.09 1018.45 1016.81 1016.31 1016.23 1016.45 1016.48 1016.51 1016.53 1016.72 1016.89 1017.25 1017.55 1017.72 1017.27 1016.62 1016.42 1015.82 1015.38 1015.49 1015.43 1015.09 1015.39 1015.82 1016.09 1016.24
1027.34 1027.21 1026.99 1026.69 1026.29 1026.04 1025.58 1025.09 1024.56 1023.92 1023.40 1022.77 1022.03 1021.35 1020.84 1020.89 1020.87 1020.38 1020.10 1020.32 1020.50 1019.23 1017.53 1016.80 1016.31 1016.21 1016.46 1016.45 1016.46 1016.55 1016.78 1017.09 1017.63 1017.94 1017.95 1017.27 1016.44 1015.84 1015.61 1015.47 1015.37 1015.68 1015.97 1016.85 1016.77 1016.81 1016.67
1027.67 1027.53 1027.38 1027.04 1026.67 1026.30 1025.85 1025.29 1024.76 1024.03 1023.37 1022.62 1021.72 1020.96 1020.48 1020.17 1020.32 1020.54 1020.40 1020.61 1020.24 1018.06 1016.93 1016.20 1016.17 1016.30 1016.40 1016.20 1016.35 1016.54 1016.88 1017.27 1017.50 1017.92 1018.70 1018.39 1016.61 1015.71 1015.57 1015.69 1016.02 1016.61 1017.31 1018.56 1019.00 1018.82 1017.53
1027.98 1027.69 1027.48 1027.21 1026.99 1026.46 1025.96 1025.40 1024.75 1024.08 1023.28 1022.46 1021.21 1020.76 1020.67 1020.33 1020.28 1020.30 1020.78 1021.22 1019.20 1017.62 1016.42 1016.19 1016.17 1016.23 1016.25 1016.28 1016.64 1016.74 1016.90 1017.06 1017.03 1017.40 1017.84 1017.97 1016.91 1015.75 1015.58 1015.56 1015.97 1016.56 1017.45 1018.04 1018.79 1019.00 1018.64
1028.15 1027.88 1027.62 1027.40 1027.07 1026.64 1026.24 1025.62 1024.96 1024.23 1023.32 1022.40 1021.99 1021.47 1020.79 1020.40 1020.37 1020.69 1021.04 1020.33 1018.60 1017.15 1016.36 1016.17 1016.35 1016.13 1016.46 1016.42 1016.80 1016.92 1016.72 1016.47 1016.76 1017.04 1017.11 1017.56 1017.43 1016.12 1015.78 1015.75 1016.05 1016.35 1017.24 1018.12 1018.98 1019.48 1018.88
1028.32 1028.00 1027.74 1027.49 1027.17 1026.86 1026.42 1025.81 1025.25 1024.48 1023.47 1022.37 1022.22 1021.98 1021.01 1020.50 1020.37 1021.06 1021.19 1019.83 1018.02 1016.75 1016.47 1016.40 1016.36 1016.38 1016.46 1016.56 1016.86 1017.11 1016.81 1016.32 1016.39 1017.17 1017.40 1017.79 1018.01 1016.94 1016.47 1016.05 1016.11 1016.76 1017.11 1018.06 1018.97 1019.56 1019.67
1028.69 1028.18 1027.91 1027.68 1027.45 1026.93 1026.53 1026.12 1025.55 1024.70 1024.01 1023.16 1022.89 1022.65 1021.28 1020.87 1021.50 1021.34 1020.82 1019.49 1018.39 1017.28 1016.76 1016.59 1016.50 1016.56 1016.63 1016.72 1016.99 1017.24 1016.99 1016.42 1016.26 1016.76 1017.60 1017.76 1018.33 1018.06 1016.67 1016.16 1016.09 1016.34 1016.80 1017.54 1018.78 1019.56 1019.57
1028.75 1028.37 1028.10 1027.81 1027.44 1027.35 1026.90 1026.26 1025.76 1025.33 1024.72 1024.62 1023.86 1022.93 1021.66 1021.38 1021.98 1021.91 1020.92 1019.99 1018.91 1017.87 1017.48 1017.29 1017.14 1017.04 1017.06 1017.27 1017.56 1017.09 1016.87 1016.57 1016.60 1016.95 1017.25 1017.88 1018.40 1018.32 1017.21 1017.06 1016.59 1016.62 1016.88 1017.34 1018.19 1018.92 1018.96
1029.20 1028.91 1028.35 1027.90 1027.70 1027.34 1026.94 1026.44 1025.87 1025.49 1024.95 1024.53 1024.25 1023.76 1022.77 1022.61 1023.10 1022.55 1021.83 1020.70 1019.62 1018.71 1018.24 1017.92 1017.80 1017.70 1017.78 1017.76 1017.68 1017.42 1017.20 1016.90 1017.12 1017.14 1017.36 1017.68 1018.47 1018.40 1017.92 1017.20 1016.93 1016.99 1017.10 1017.42 1018.01 1018.93 1018.19
1029.07 1028.95 1028.77 1028.44 1027.90 1027.63 1027.06 1026.64 1026.06 1025.49 1024.76 1024.80 1024.56 1024.59 1024.42 1023.94 1023.58 1023.12 1022.61 1021.71 1020.95 1020.08 1019.19 1018.92 1018.61 1018.95 1018.88 1018.75 1018.51 1018.22 1018.02 1017.75 1017.59 1017.69 1017.99 1018.38 1018.76 1018.43 1017.88 1017.45 1017.25 1016.91 1017.05 1017.21 1017.62 1017.26 1017.36
1028.88 1028.74 1028.58 1028.53 1028.22 1027.73 1027.26 1026.80 1026.61 1026.03 1025.05 1025.16 1025.62 1025.77 1025.32 1024.82 1024.16 1023.79 1023.21 1022.55 1021.82 1021.42 1020.85 1020.22 1020.43 1020.48 1020.11 1019.95 1019.77 1019.68 1019.27 1018.97 1018.55 1018.47 1018.53 1018.95 1018.80 1018.58 1018.18 1017.40 1016.77 1016.57 1016.45 1016.04 1016.36 1016.32 1015.93
1028.94 1028.58 1028.14 1028.04 1028.08 1027.98 1027.34 1027.16 1026.98 1026.59 1026.38 1026.87 1026.71 1026.56 1026.41 1025.67 1024.95 1024.49 1024.09 1023.84 1023.32 1022.99 1021.82 1021.69 1021.99 1021.64 1020.80 1020.47 1020.40 1020.09 1019.78 1019.20 1018.69 1018.66 1018.88 1019.19 1019.14 1019.17 1017.64 1017.33 1016.70 1015.72 1014.83 1014.43 1014.13 1014.16 1014.04
1029.01 1028.86 1028.30 1027.84 1027.63 1027.66 1027.48 1027.41 1027.16 1027.03 1027.14 1027.56 1027.56 1027.59 1027.38 1026.56 1025.84 1025.38 1024.93 1024.67 1024.26 1024.00 1023.80 1022.93 1022.35 1022.01 1021.17 1020.50 1019.69 1018.72 1018.44 1017.85 1017.73 1017.44 1017.70 1018.12 1018.72 1018.91 1018.04 1017.52 1015.50 1012.92 1012.46 1012.53 1012.84 1012.47 1012.52
1029.12 1028.81 1028.47 1027.95 1027.63 1027.45 1027.40 1027.27 1027.11 1027.04 1026.94 1027.36 1027.44 1027.78 1027.75 1027.21 1026.60 1025.98 1025.48 1025.28 1024.94 1024.55 1023.97 1023.31 1022.56 1022.11 1021.63 1021.23 1020.29 1018.55 1017.56 1016.94 1015.79 1015.67 1016.16 1016.57 1017.70 1018.15 1017.68 1016.62 1013.38 1012.61 1011.63 1011.80 1011.70 1010.74 1010.62
1028.86 1028.85 1028.47 1028.07 1027.71 1027.49 1027.29 1027.10 1026.94 1026.85 1026.68 1027.10 1027.15 1027.38 1027.72 1027.62 1026.58 1026.30 1026.17 1025.98 1025.71 1025.12 1024.32 1023.48 1022.84 1022.39 1021.99 1021.52 1020.76 1019.52 1018.22 1017.08 1016.37 1016.34 1016.30 1016.67 1016.81 1017.06 1016.79 1015.57 1013.21 1011.22 1010.62 1010.17 1010.72 1010.05 1009.01
1028.60 1028.40 1028.39 1028.00 1027.57 1027.26 1027.05 1026.88 1026.73 1026.54 1026.34 1026.77 1026.83 1026.96 1027.36 1027.25 1026.15 1025.99 1025.94 1025.93 1025.99 1025.72 1025.36 1024.60 1023.83 1023.06 1022.40 1021.76 1020.93 1019.69 1018.40 1017.46 1016.67 1016.10 1016.61 1016.96 1016.76 1015.80 1015.15 1014.31 1011.51 1010.51 1010.28 1010.57 1010.78 1009.50 1008.68
1028.56 1028.23 1027.98 1027.70 1027.32 1027.00 1026.80 1026.60 1026.37 1026.15 1025.87 1026.14 1026.21 1026.28 1026.57 1026.35 1025.53 1025.16 1025.20 1025.56 1025.39 1025.50 1025.29 1024.78 1024.61 1023.27 1022.93 1022.41 1021.07 1019.71 1018.33 1017.30 1016.25 1015.52 1015.19 1015.27 1015.50 1014.96 1014.73 1013.58 1010.94 1009.76 1010.38 1010.28 1008.88 1008.69 1008.85
1028.07 1027.89 1027.67 1027.30 1026.95 1026.61 1026.37 1026.16 1025.98 1025.66 1025.43 1025.27 1025.66 1025.58 1025.58 1025.59 1024.85 1024.17 1024.05 1023.90 1024.09 1024.07 1024.47 1024.67 1024.56 1024.05 1023.25 1022.76 1021.91 1021.28 1020.14 1019.08 1017.81 1016.21 1014.37 1014.34 1013.35 1013.01 1012.49 1010.54 1009.60 1009.50 1008.93 1008.71 1008.77 1009.08 1009.11
Wind_Speed
10 10 11 11 12 12 13 13 14 15 16 17 16 14 13 13 13 12 12 11 11 11 10 11 12 13 3 2 5 2 3 3 3 3 4 4 4 1 2 2 4 4 5 6 8 13 12
11 10 11 11 12 12 12 13 14 15 16 17 18 16 15 14 13 13 12 11 10 9 9 9 10 11 1 3 1 5 3 1 1 2 2 2 1 2 3 3 2 3 7 16 11 10 7
10 11 12 12 12 13 13 14 14 15 16 17 18 18 16 15 14 12 12 12 11 8 7 7 7 2 1 9 1 3 2 1 2 2 1 2 3 2 1 4 2 5 8 9 4 3 5
11 12 12 12 13 13 14 14 15 15 16 17 17 17 17 16 15 14 13 12 11 8 6 5 5 1 6 1 1 1 3 3 1 3 2 2 3 2 2 4 6 4 0 6 8 3 5
11 11 12 13 13 14 14 15 15 16 17 17 18 18 18 17 16 15 14 13 9 6 3 3 2 2 8 2 2 1 4 1 0 1 1 1 2 0 3 3 4 5 5 6 11 3 4
10 11 12 13 14 15 15 15 15 16 17 18 19 19 19 18 17 15 13 5 2 1 1 1 1 3 4 2 1 0 2 1 1 2 3 3 4 3 3 4 4 8 6 6 9 6 3
10 11 11 11 12 14 15 16 16 17 17 18 19 19 20 20 18 12 4 2 6 3 2 6 2 3 3 6 1 1 2 2 1 4 2 3 4 5 8 6 5 5 5 8 15 7 4
8 9 10 11 12 12 13 15 16 16 17 18 18 19 21 21 19 7 3 6 2 3 8 4 5 5 5 1 3 1 2 1 2 2 2 4 4 4 5 6 6 6 7 9 9 3 3
11 11 13 14 18 18 19 18 17 17 18 18 18 19 22 22 13 5 4 3 1 3 2 6 4 3 1 3 3 2 4 1 0 2 1 3 5 6 2 7 5 5 5 5 6 10 1
15 16 17 18 18 19 18 18 20 20 18 19 19 20 21 26 5 2 2 4 1 2 5 4 2 1 2 2 3 1 1 1 1 2 3 6 4 3 5 5 1 6 5 5 11 4 2
14 15 17 17 17 17 18 19 20 20 19 20 22 20 20 9 2 2 3 3 1 2 6 2 2 1 2 2 3 1 2 3 2 2 3 7 2 4 4 3 2 10 6 7 2 0 3
14 14 16 17 18 19 18 18 20 20 22 22 22 20 19 2 3 2 3 3 2 8 7 2 1 1 3 1 2 1 0 2 0 2 2 8 3 3 4 5 3 9 6 1 2 2 3
14 15 16 16 18 18 19 20 21 22 22 23 23 21 10 0 3 4 2 3 7 5 1 2 2 1 0 3 2 2 1 3 1 5 5 6 3 3 1 5 1 8 7 6 8 7 5
14 15 16 17 18 19 20 21 22 23 24 23 25 20 2 3 1 3 2 6 2 5 6 0 1 1 4 4 3 1 1 3 3 3 2 3 10 1 0 1 2 4 3 5 5 4 8
13 14 15 16 17 19 20 22 24 25 25 27 20 3 3 3 0 2 5 3 9 7 2 3 1 2 3 2 2 1 4 5 6 9 6 3 7 3 2 1 3 1 3 2 1 1 3
14 14 14 15 16 18 21 23 25 25 25 26 5 4 3 4 2 4 5 8 7 5 2 1 5 6 5 3 3 2 2 4 3 6 2 4 4 2 2 2 2 1 3 2 3 4 6
13 15 12 13 16 18 21 23 24 26 27 22 3 4 3 5 3 5 5 8 5 6 4 7 5 4 7 4 4 4 5 4 5 4 2 4 3 6 1 4 6 1 1 3 3 4 2
13 14 15 17 19 19 20 22 24 24 26 10 4 3 3 3 2 0 3 4 5 4 1 4 2 7 7 5 5 5 8 6 5 7 7 5 5 4 9 1 1 2 4 5 5 4 3
11 12 14 15 16 16 18 21 23 24 21 4 5 4 3 3 3 3 5 5 3 3 2 2 3 4 1 4 3 6 3 3 6 6 7 6 2 3 10 4 3 3 4 3 4 3 6
10 12 13 13 14 15 17 19 22 24 23 2 3 5 5 4 1 1 4 4 5 6 3 2 3 0 1 3 5 4 3 1 3 3 3 5 4 7 8 8 3 3 4 5 5 3 4
10 11 13 13 14 15 17 18 22 25 25 1 2 3 2 4 4 4 3 3 4 5 3 5 1 6 4 4 4 4 2 6 1 3 3 2 5 4 7 9 4 6 10 9 10 8 9
10 10 11 14 14 14 14 16 19 23 23 3 3 4 5 5 4 5 2 3 2 7 4 4 6 13 6 4 4 7 8 3 6 4 1 1 5 3 5 10 9 8 9 11 14 12 15
11 11 12 12 13 13 13 14 15 17 11 3 4 3 3 5 4 3 2 5 5 9 5 6 10 9 8 4 9 11 13 12 11 7 6 5 4 2 11 3 7 8 12 16 7 7 7
14 14 12 11 11 12 13 12 12 11 6 2 1 1 2 4 3 2 7 9 11 9 10 12 13 8 4 15 17 9 9 15 16 15 14 7 6 4 5 1 14 7 3 7 10 9 14
13 13 13 13 13 12 12 13 13 11 8 2 1 2 1 5 3 10 7 4 6 10 8 9 10 5 7 8 5 7 4 5 10 16 17 17 7 4 6 7 15 13 15 7 8 11 11
14 15 14 13 14 14 14 14 14 15 11 1 2 3 2 1 3 1 4 4 6 4 5 3 5 8 4 3 3 5 6 4 5 1 5 7 3 8 4 5 9 5 2 3 4 7 14
14 14 15 16 16 15 15 15 16 15 14 2 3 4 3 4 6 5 4 2 2 4 4 6 5 8 4 3 5 7 10 5 6 7 6 4 2 16 13 12 11 6 6 4 2 8 3
16 16 16 17 17 17 17 18 17 17 16 5 3 5 4 4 8 10 4 5 4 3 3 3 7 2 2 4 4 4 5 6 7 8 6 9 8 6 7 9 18 7 5 10 6 3 2
16 17 18 18 19 18 19 17 20 18 18 13 4 3 5 5 5 5 8 12 12 16 8 5 5 4 4 2 4 4 6 5 10 7 4 9 13 6 11 8 3 6 6 6 2 2 3
Wind_Direction
36 35 27 27 21 20 15 12 11 7 7 5 3 357 348 338 329 324 319 317 317 321 324 322 326 326 331 340 256 177 160 14 21 30 48 49 53 57 308 314 311 212 272 268 261 278 274
35 27 23 22 18 14 15 11 8 7 7 4 5 360 351 343 335 326 320 315 313 314 315 320 326 323 320 290 116 150 150 13 16 52 28 56 122 192 263 248 190 266 275 280 279 272 253
29 23 19 18 17 13 11 10 6 5 4 3 2 359 352 345 336 328 319 313 309 306 310 317 326 349 13 231 50 158 156 196 177 171 249 189 165 64 354 288 313 286 312 317 255 252 276
27 26 16 17 13 12 11 8 5 2 1 1 357 355 351 343 335 326 317 308 301 298 304 308 335 31 250 281 134 235 157 290 243 233 213 198 171 197 197 306 337 322 231 341 286 297 277
26 20 18 15 12 10 9 7 4 2 1 359 356 352 348 341 333 324 314 309 286 273 248 297 42 68 275 319 294 276 162 246 12 72 311 92 71 307 2 6 350 10 284 290 313 203 274
24 26 20 17 11 8 6 5 3 1 359 356 353 348 345 340 332 323 316 308 136 122 22 98 68 32 278 291 276 349 131 153 34 336 54 63 39 4 20 55 292 292 313 280 267 282 228
26 20 15 13 11 5 1 359 358 358 356 353 349 345 343 340 334 330 9 28 15 342 27 206 176 255 270 295 20 194 139 107 84 62 13 17 26 270 268 218 246 279 246 257 281 273 278
18 11 0 358 356 358 357 353 350 352 351 349 346 344 343 341 337 333 63 74 152 203 312 245 245 279 247 235 311 279 108 21 50 299 322 7 241 231 272 255 249 243 274 284 281 215 300
2 6 2 13 16 11 3 353 342 342 343 342 342 343 342 339 330 26 64 113 306 151 271 297 213 203 245 147 275 282 144 85 95 316 238 193 254 322 265 307 303 246 216 258 258 326 219
34 28 22 20 16 5 360 356 355 356 347 341 339 339 343 332 53 315 33 333 324 156 42 271 251 264 87 102 287 209 210 138 273 281 312 224 277 294 301 267 150 304 214 273 302 5 290
28 20 19 15 11 7 1 356 354 350 348 346 345 338 344 358 263 58 292 321 285 66 22 265 241 173 116 174 313 4 351 52 245 261 66 264 297 351 300 252 159 254 312 289 287 298 16
30 23 15 10 5 359 354 355 353 352 346 342 338 335 341 8 314 277 329 328 53 42 262 321 132 301 327 167 245 133 335 53 36 304 210 256 297 238 244 301 206 293 322 61 51 61 23
24 16 10 9 8 4 0 358 352 348 343 338 331 324 326 311 277 320 12 39 31 138 312 244 253 167 128 267 288 179 266 303 227 13 353 322 249 257 239 324 20 12 17 349 357 2 247
21 18 11 7 4 1 357 355 351 346 343 336 325 316 275 208 308 336 32 46 179 243 224 161 180 239 234 176 226 237 296 295 218 115 93 80 329 207 84 129 296 6 87 126 309 307 288
18 16 11 8 2 3 2 358 353 348 343 336 324 323 330 333 245 99 78 87 217 211 216 202 194 227 274 226 226 311 208 220 216 178 170 148 274 300 182 162 118 349 38 177 253 275 358
19 15 14 6 8 8 360 356 352 347 341 338 319 340 285 317 39 62 92 225 232 219 173 154 204 182 236 216 193 199 224 201 227 188 157 199 304 207 282 132 35 118 163 36 17 348 313
17 12 13 14 8 6 3 1 355 352 347 338 27 353 294 340 76 58 188 228 269 243 201 177 229 238 222 220 207 215 245 267 180 154 116 143 130 283 300 192 174 74 110 79 125 141 193
14 16 11 14 13 3 9 2 358 357 353 12 356 342 305 16 59 158 207 218 316 304 49 267 223 215 203 192 219 230 227 235 157 150 168 202 152 250 239 102 49 193 191 139 122 266 222
13 14 16 16 14 8 4 5 2 356 358 327 328 288 318 69 213 256 300 301 286 312 303 335 275 216 166 204 269 196 230 323 157 158 168 186 221 348 337 11 20 209 203 153 110 86 216
358 359 2 7 5 5 5 2 1 356 350 338 316 325 325 49 6 351 341 283 287 334 278 300 275 121 101 245 224 263 248 352 207 213 167 145 178 194 211 226 180 217 207 188 152 143 216
344 342 347 351 356 358 3 2 1 358 353 65 13 291 359 327 356 343 340 329 316 318 344 351 319 31 338 302 293 235 327 340 339 345 79 145 229 198 257 255 234 230 263 219 202 206 196
331 333 330 328 340 352 357 2 2 1 353 67 9 349 344 303 299 319 283 281 293 348 323 328 36 345 354 304 332 312 342 5 251 16 158 357 255 165 262 267 240 248 235 257 228 240 244
334 330 323 322 318 332 348 350 357 7 28 25 347 336 307 295 328 352 328 4 6 358 301 76 7 338 325 303 324 290 275 257 247 236 211 188 193 133 274 269 318 269 213 229 212 196 165
328 325 327 336 331 321 325 332 344 356 59 126 249 12 16 285 334 334 336 328 325 336 290 312 329 318 269 328 312 282 252 245 236 229 205 189 165 169 274 345 263 246 186 208 212 231 212
329 330 332 336 338 335 325 317 320 323 337 115 228 83 5 291 333 298 317 323 341 325 292 284 275 242 307 310 292 294 295 291 237 229 211 205 178 215 222 208 277 293 279 191 185 263 203
330 329 329 328 332 329 328 324 316 306 309 124 212 155 137 325 257 36 347 301 305 335 319 313 339 326 10 265 242 243 243 267 286 119 26 124 114 210 144 206 253 238 332 147 148 281 250
317 316 316 321 322 322 320 319 315 309 294 196 242 171 125 260 255 198 186 140 313 287 264 294 330 327 324 253 249 248 252 248 248 205 174 141 188 219 225 245 262 222 179 162 165 260 302
318 317 317 316 316 313 313 310 305 304 299 278 242 184 163 232 246 239 202 211 235 193 223 297 337 320 270 256 263 253 240 233 248 227 182 183 181 189 205 235 255 166 75 190 229 259 299
309 309 307 305 307 307 307 305 300 294 298 292 255 201 212 224 251 211 192 223 224 228 239 199 238 295 276 337 321 338 320 334 327 294 315 240 226 203 202 223 221 211 215 221 190 257 251